Ketchikan International Airport
PAKT : now visible

Airfield :











YOU CAN JOIN US ON...

 
LOGIN :

Register | Disclaimer

   EN    FR    IT 

 









Legend :    VFR   Marginal VFR   IFR   Intensive IFR   Very Intensive IFR
Visi :
Ceiling :
>= 8 km
>= 3000ft
5 to 8 km
1000 to 3000 ft
1500m to 5 km
500 to 1000 ft
800 to 1500m
200 to 500 ft
< 800m
< 200 ft
Symbols :   Thunderstorms  Fog  Heavy snow  Heavy precipitations  Wind > 20 kt






- Airport Elevation : 89 ft
- IATA code : KTN


PAKT - Ketchikan International

EXPIRED METARs :
  • 280553Z 00000KT 10SM SCT050 01/M01 A2975
  • 280453Z 11003KT 10SM CLR 02/01 A2973

TAF PAKT
Valid from the 28 at 06:00 until the 29 at 06:00 UTC


280547Z 2806/2906 VRB03KT P6SM SCT025 OVC040
TEMPO 2808/2812 5SM BR FEW005 BKN015
FM281800 12005KT P6SM FEW015 BKN025
FM282300 14015G25KT P6SM -SHRA OVC025 AMD NOT SKED 2806/2815



MET'MAP, your aeronautical weather chart ! - Copyright ORBIFLY December 2007 - Disclaimer

ORBIFLY MET'MAP TEAM :

Programming & Development : Alexandra Zaïnal
Concept & original design : Baudouin d'Aumeries
Assistance for programming : Marc-Olivier Méhu
Technical & hardware support : Manuel Goepfert

Contact : metmap@orbifly.com




SOURCES & CREDITS :

   NOAA       Earth
Advisory